Content
SEND FEEDBACK

Daily
Averages
Monthly
Summary
Philippines

QUEZON CITY, PHILIPPINES


Home > Asia > Philippines
Elevation: 151 feet     Latitude: 14 39N     Longitude: 121 03E

WEATHER
 
SELECT A DAY
Number of Records: 172,421;   Date Range: 7/1/96 - 7/23/14
 
SHARE

PRINT THIS DATA

[ ← Previous Day ]
WEATHER ALMANAC - OCTOBER 15, 2013
[ Next Day → ]
[ °C ]   °F
Weather ElementAverageHighLow
Temperature81.7 °F85 °F (11:00 am)77 °F (4:00 am)
Dewpoint77.5 °F79 °F (8:00 am)75 °F (5:00 pm)
Humidity86.7 %100 % (2:00 am)67 % (11:00 am)
Barometer29.86 in29.94 in (11:00 pm)29.80 in (4:00 am)
Wind Speed8.3 mph18.4 mph (1:00 pm)
Weather ElementAverage
Visibility6 mi
Wind DirectionS (182 °)

Weather ElementTotal
Precipitation---
Cooling Degree Days16 (Base 65)
Growing Degree Days31 (Base 50)
Averaged from 30 records on October 15, 2013
WEATHER CONDITIONS BREAKOUT
WIND DIRECTION BREAKOUT
WEATHER BY HOUR - OCTOBER 15, 2013
[ °C ]   °F
Local TimeTemperatureDewpointHumidityBarometerVisibilityWind DirectionWind SpeedGust SpeedPrecipitationEventsConditions
1:00 AM78.8 °F77.0 °F94 %29.83 in6.2 miWest (260°)3.5 mphMostly Cloudy
2:00 AM79.0 °F78.0 °F97 %29.84 in6.0 miSE (130°)2.2 mphHaze
2:00 AM78.8 °F78.8 °F100 %29.83 in6.2 miVariable2.3 mphScattered Clouds
3:00 AM78.8 °F77.0 °F94 %29.83 in6.2 miVariable2.3 mphPartly Cloudy
4:00 AM77.0 °F77.0 °F100 %29.80 in6.2 miVariable1.2 mphPartly Cloudy
5:00 AM77.0 °F77.0 °F100 %29.83 in6.2 miCalmPartly Cloudy
6:00 AM77.0 °F77.0 °F100 %29.83 in6.2 miCalmPartly Cloudy
7:00 AM80.6 °F78.8 °F94 %29.86 in6.2 miESE (120°)2.3 mphPartly Cloudy
8:00 AM83.0 °F79.0 °F84 %29.88 in6.0 miWest (260°)4.5 mphHaze
8:00 AM82.4 °F78.8 °F89 %29.86 in6.2 miWest (260°)5.8 mphScattered Clouds
9:00 AM84.2 °F77.0 °F79 %29.89 in6.2 miWest (270°)9.2 mphScattered Clouds
10:00 AM84.2 °F78.8 °F84 %29.89 in6.2 miWest (270°)9.2 mphScattered Clouds
11:00 AM85.0 °F76.0 °F67 %29.89 in6.0 miWest (260°)15.7 mphHaze
11:00 AM84.2 °F75.2 °F74 %29.89 in6.2 miWest (260°)16.1 mphMostly Cloudy
12:00 PM84.2 °F77.0 °F79 %29.86 in6.2 miWest (260°)13.8 mphScattered Clouds
1:00 PM84.2 °F78.8 °F84 %29.83 in6.2 miWSW (250°)18.4 mphScattered Clouds
2:00 PM85.0 °F78.0 °F75 %29.82 in6.0 miWest (260°)15.7 mphHaze
2:00 PM84.2 °F78.8 °F84 %29.80 in6.2 miWest (260°)17.3 mphScattered Clouds
3:00 PM84.2 °F77.0 °F79 %29.83 in6.2 miWest (260°)15.0 mphScattered Clouds
4:00 PM84.2 °F75.2 °F74 %29.80 in6.2 miWSW (250°)15.0 mphScattered Clouds
5:00 PM84.0 °F75.0 °F67 %29.84 in6.0 miWSW (250°)11.2 mphHaze
5:00 PM84.2 °F75.2 °F74 %29.83 in6.2 miWSW (250°)11.5 mphScattered Clouds
6:00 PM84.2 °F77.0 °F79 %29.83 in6.2 miWSW (240°)11.5 mphMostly Cloudy
7:00 PM82.4 °F78.8 °F89 %29.89 in6.2 miWSW (250°)10.4 mphScattered Clouds
8:00 PM82.0 °F78.0 °F85 %29.91 in6.0 miSW (230°)6.7 mphPartly Cloudy
8:00 PM82.4 °F78.8 °F89 %29.89 in6.2 miSW (230°)8.1 mphMostly Cloudy
9:00 PM80.6 °F78.8 °F94 %29.89 in6.2 miSSW (210°)4.6 mphMostly Cloudy
10:00 PM80.6 °F78.8 °F94 %29.92 in5.0 miSE (130°)2.3 mphRain-ThunderstormRain Showers
11:00 PM77.0 °F77.0 °F100 %29.94 in4.0 miNNE (20°)6.7 mphRainLight Rain
11:00 PM77.0 °F77.0 °F100 %29.92 in3.7 miNNE (20°)5.8 mphRainLight Rain
Hourly data recorded from RPLL, located miles away from Quezon City, Philippines







STORIES FROM OUR PARTNERS